UFO 11 (USA 174)

Last updated on Wed Jul 16 2025 00:02:45 GMT+0000 (Coordinated Universal Time)

1 28117U 03057A 25196.45736049 -.00000101 00000+0 00000+0 0 9996 2 28117 8.5917 35.3536 0002509 96.5909 41.8937 1.00272026 79075
UTC large
Height (km)
Speed (km/s)
/
Latitude / Longitude
Inclination (degrees)
Orbital Period (minutes)
Azimuth
Elevation
Range (km)
Doppler Factor

Next 0 passes for location: London (51.5072 / 0.1276)

Sorry there are no passes over London.